Simultaneous Nadir Overpasses (SNOs) Predictions

Prediction of SNOs between GOES-17 and METOP-B Satellite Orbit:

Table of predicted SNOs for the next 14.0 days since TLE Epoch: 9/10/2022
Index Date Time (GOES-17) GOES-17 Lat,Lon METOP-B Lat,Lon Distance(km) Time Diff (sec)
1 09/11/2022 06:40:04 0.06,-137.31 0.09,-137.24 8.46 80
2 09/13/2022 18:38:14 -0.05,-137.32 -0.17,-136.80 58.96 80
3 09/15/2022 06:54:34 0.06,-137.32 -0.85,-141.40 464.63 80
4 09/16/2022 06:36:33 0.05,-137.31 0.25,-136.40 104.51 80
5 09/17/2022 18:52:43 -0.05,-137.31 0.76,-140.95 415.65 80
6 09/18/2022 18:34:43 -0.05,-137.30 -0.34,-135.95 153.14 80
7 09/20/2022 06:51:02 0.05,-137.29 -0.68,-140.55 371.64 80
8 09/21/2022 06:33:02 0.04,-137.28 0.43,-135.55 196.73 80
9 09/22/2022 18:49:12 -0.04,-137.26 0.58,-140.11 324.47 80
10 09/23/2022 18:31:12 -0.04,-137.25 -0.53,-135.11 243.74 80
